When you browse on this site, cookies collect data to enhance your experience and personalize the content and advertising you see.
Visit our Privacy Policy to learn more. By continuing to use the site, you agree to this use of cookies and data.
  • en Suisse
  • Liste des pays
  • À 7 jours
  • Température de l'eau
  • Carte météo
  • Widgets météo
  • user-avatar
    Se connecter

    Météo par heure à Gifhorn

    Ce jour, 25 Mai, Lundi

    Heure Température Précipitation Vent Pression Humidité
    00:00 +8°C° 0 mm 4 m/s 765 mmHg 96%
    01:00 +8°C° 0 mm 4 m/s 765 mmHg 96%
    02:00 +8°C° 0 mm 4 m/s 765 mmHg 96%
    03:00 +8°C° 0 mm 5 m/s 765 mmHg 96%
    04:00 +8°C° 0 mm 5 m/s 765 mmHg 96%
    05:00 +9°C° 0.1 mm 5 m/s 765 mmHg 94%
    06:00 +9°C° 0.1 mm 5 m/s 765 mmHg 91%
    07:00 +10°C° 0.1 mm 5 m/s 765 mmHg 89%
    08:00 +10°C° 0.1 mm 5 m/s 766 mmHg 88%
    09:00 +10°C° 0.1 mm 5 m/s 766 mmHg 87%
    10:00 +10°C° 0.1 mm 5 m/s 766 mmHg 85%
    11:00 +12°C° 0.1 mm 5 m/s 766 mmHg 82%
    12:00 +12°C° 0.1 mm 5 m/s 766 mmHg 79%
    13:00 +13°C° 0.1 mm 5 m/s 766 mmHg 76%
    14:00 +13°C° 0 mm 5 m/s 767 mmHg 74%
    15:00 +14°C° 0 mm 5 m/s 767 mmHg 72%
    16:00 +14°C° 0 mm 5 m/s 767 mmHg 70%
    17:00 +14°C° 0 mm 4 m/s 767 mmHg 73%
    18:00 +14°C° 0 mm 4 m/s 767 mmHg 75%
    19:00 +14°C° 0 mm 4 m/s 768 mmHg 78%
    20:00 +12°C° 0 mm 4 m/s 768 mmHg 84%
    21:00 +11°C° 0 mm 3 m/s 769 mmHg 89%
    22:00 +10°C° 0 mm 3 m/s 769 mmHg 94%
    23:00 +9°C° 0 mm 3 m/s 769 mmHg 95%

    Demain, 26 Mai, Mardi

    Heure Température Précipitation Vent Pression Humidité
    00:00 +8°C° 0 mm 2 m/s 769 mmHg 97%
    01:00 +7°C° 0 mm 2 m/s 769 mmHg 98%
    02:00 +7°C° 0 mm 2 m/s 770 mmHg 98%
    03:00 +7°C° 0 mm 2 m/s 770 mmHg 98%
    04:00 +7°C° 0 mm 2 m/s 770 mmHg 98%
    05:00 +8°C° 0 mm 2 m/s 770 mmHg 95%
    06:00 +9°C° 0 mm 2 m/s 770 mmHg 92%
    07:00 +11°C° 0 mm 1 m/s 771 mmHg 90%
    08:00 +13°C° 0 mm 1 m/s 771 mmHg 83%
    09:00 +15°C° 0 mm 1 m/s 771 mmHg 75%
    10:00 +18°C° 0 mm 1 m/s 771 mmHg 68%
    11:00 +19°C° 0 mm 1 m/s 771 mmHg 64%
    12:00 +20°C° 0 mm 1 m/s 771 mmHg 60%
    13:00 +21°C° 0 mm 1 m/s 770 mmHg 56%
    14:00 +20°C° 0 mm 2 m/s 770 mmHg 56%
    15:00 +21°C° 0 mm 2 m/s 770 mmHg 56%
    16:00 +21°C° 0 mm 2 m/s 770 mmHg 55%
    17:00 +20°C° 0 mm 2 m/s 770 mmHg 63%
    18:00 +19°C° 0 mm 2 m/s 770 mmHg 70%
    19:00 +18°C° 0 mm 2 m/s 770 mmHg 77%
    20:00 +16°C° 0.1 mm 2 m/s 770 mmHg 82%
    21:00 +15°C° 0.1 mm 2 m/s 770 mmHg 88%
    22:00 +13°C° 0.1 mm 1 m/s 770 mmHg 93%
    23:00 +13°C° 0 mm 1 m/s 770 mmHg 93%

    Après-demain, 27 Mai, Mercredi

    Heure Température Précipitation Vent Pression Humidité
    00:00 +12°C° 0 mm 1 m/s 770 mmHg 93%
    01:00 +12°C° 0 mm 1 m/s 770 mmHg 93%
    02:00 +12°C° 0 mm 1 m/s 770 mmHg 94%
    03:00 +11°C° 0 mm 1 m/s 769 mmHg 95%
    04:00 +11°C° 0 mm 1 m/s 769 mmHg 96%
    05:00 +12°C° 0 mm 2 m/s 769 mmHg 94%
    06:00 +13°C° 0 mm 2 m/s 769 mmHg 91%
    07:00 +14°C° 0 mm 2 m/s 769 mmHg 89%
    08:00 +15°C° 0 mm 2 m/s 769 mmHg 80%
    09:00 +17°C° 0 mm 2 m/s 769 mmHg 72%
    10:00 +18°C° 0 mm 3 m/s 769 mmHg 63%
    11:00 +19°C° 0 mm 3 m/s 769 mmHg 60%
    12:00 +20°C° 0 mm 3 m/s 768 mmHg 56%
    13:00 +21°C° 0 mm 4 m/s 768 mmHg 52%
    14:00 +20°C° 0 mm 4 m/s 768 mmHg 57%
    15:00 +19°C° 0 mm 4 m/s 768 mmHg 61%
    16:00 +19°C° 0 mm 5 m/s 768 mmHg 65%
    17:00 +18°C° 0.1 mm 4 m/s 768 mmHg 69%
    18:00 +17°C° 0.1 mm 3 m/s 768 mmHg 74%
    19:00 +16°C° 0.1 mm 3 m/s 768 mmHg 78%
    20:00 +14°C° 0 mm 3 m/s 768 mmHg 80%
    21:00 +12°C° 0 mm 3 m/s 768 mmHg 83%
    22:00 +10°C° 0 mm 3 m/s 769 mmHg 85%
    23:00 +9°C° 0 mm 3 m/s 769 mmHg 86%

    28 Mai, Jeudi

    Heure Température Précipitation Vent Pression Humidité
    00:00 +8°C° 0 mm 2 m/s 769 mmHg 87%
    01:00 +7°C° 0 mm 2 m/s 769 mmHg 88%
    02:00 +6°C° 0 mm 2 m/s 769 mmHg 89%
    03:00 +6°C° 0 mm 2 m/s 769 mmHg 90%
    04:00 +6°C° 0 mm 2 m/s 768 mmHg 91%
    05:00 +7°C° 0 mm 2 m/s 768 mmHg 86%
    06:00 +8°C° 0 mm 3 m/s 768 mmHg 81%
    07:00 +9°C° 0 mm 3 m/s 768 mmHg 77%
    08:00 +11°C° 0 mm 3 m/s 768 mmHg 70%
    09:00 +12°C° 0 mm 3 m/s 768 mmHg 64%
    10:00 +13°C° 0 mm 4 m/s 767 mmHg 58%
    11:00 +14°C° 0 mm 4 m/s 767 mmHg 55%
    12:00 +17°C° 0 mm 3 m/s 767 mmHg 51%
    13:00 +18°C° 0 mm 3 m/s 766 mmHg 48%
    14:00 +18°C° 0 mm 3 m/s 766 mmHg 49%
    15:00 +18°C° 0 mm 4 m/s 766 mmHg 51%
    16:00 +18°C° 0 mm 4 m/s 765 mmHg 52%
    17:00 +17°C° 0 mm 3 m/s 765 mmHg 58%
    18:00 +16°C° 0 mm 3 m/s 765 mmHg 64%
    19:00 +14°C° 0 mm 3 m/s 765 mmHg 69%
    20:00 +12°C° 0 mm 3 m/s 765 mmHg 75%
    21:00 +10°C° 0 mm 3 m/s 765 mmHg 81%
    22:00 +8°C° 0 mm 3 m/s 765 mmHg 87%
    23:00 +8°C° 0 mm 2 m/s 765 mmHg 90%

    29 Mai, Vendredi

    Heure Température Précipitation Vent Pression Humidité
    00:00 +7°C° 0 mm 2 m/s 765 mmHg 93%
    01:00 +7°C° 0 mm 1 m/s 765 mmHg 95%
    02:00 +7°C° 0 mm 1 m/s 765 mmHg 96%
    03:00 +7°C° 0 mm 1 m/s 764 mmHg 96%
    04:00 +6°C° 0 mm 1 m/s 764 mmHg 96%
    05:00 +8°C° 0 mm 1 m/s 764 mmHg 92%
    06:00 +9°C° 0 mm 1 m/s 764 mmHg 88%
    07:00 +10°C° 0 mm 2 m/s 764 mmHg 83%
    08:00 +13°C° 0 mm 2 m/s 764 mmHg 75%
    09:00 +14°C° 0 mm 2 m/s 763 mmHg 66%
    10:00 +16°C° 0 mm 2 m/s 763 mmHg 58%
    11:00 +17°C° 0 mm 2 m/s 763 mmHg 54%
    12:00 +18°C° 0 mm 2 m/s 762 mmHg 50%
    13:00 +19°C° 0 mm 2 m/s 762 mmHg 46%
    14:00 +18°C° 0.1 mm 3 m/s 762 mmHg 51%
    15:00 +18°C° 0.1 mm 3 m/s 762 mmHg 56%
    16:00 +17°C° 0.1 mm 3 m/s 761 mmHg 61%
    17:00 +16°C° 0.1 mm 3 m/s 761 mmHg 64%
    18:00 +16°C° 0.1 mm 3 m/s 761 mmHg 67%
    19:00 +15°C° 0.1 mm 2 m/s 762 mmHg 70%
    20:00 +13°C° 0 mm 2 m/s 762 mmHg 75%
    21:00 +10°C° 0 mm 2 m/s 762 mmHg 79%
    22:00 +9°C° 0 mm 2 m/s 762 mmHg 83%
    23:00 +8°C° 0 mm 2 m/s 762 mmHg 84%

    30 Mai, Samedi

    Heure Température Précipitation Vent Pression Humidité
    00:00 +8°C° 0 mm 1 m/s 762 mmHg 85%
    01:00 +7°C° 0 mm 1 m/s 763 mmHg 86%
    02:00 +7°C° 0 mm 1 m/s 762 mmHg 86%
    03:00 +6°C° 0 mm 0 m/s 762 mmHg 86%
    04:00 +5°C° 0 mm 0 m/s 762 mmHg 86%
    05:00 +7°C° 0 mm 0 m/s 762 mmHg 80%
    06:00 +10°C° 0 mm 1 m/s 762 mmHg 75%
    07:00 +12°C° 0 mm 1 m/s 762 mmHg 69%
    08:00 +14°C° 0 mm 1 m/s 762 mmHg 61%
    09:00 +15°C° 0 mm 2 m/s 762 mmHg 54%
    10:00 +17°C° 0 mm 2 m/s 762 mmHg 47%
    11:00 +18°C° 0 mm 2 m/s 762 mmHg 44%
    12:00 +19°C° 0 mm 2 m/s 762 mmHg 41%
    13:00 +20°C° 0 mm 2 m/s 761 mmHg 39%
    14:00 +20°C° 0 mm 2 m/s 761 mmHg 40%
    15:00 +20°C° 0 mm 2 m/s 761 mmHg 40%
    16:00 +20°C° 0 mm 2 m/s 761 mmHg 41%
    17:00 +19°C° 0 mm 2 m/s 761 mmHg 49%
    18:00 +18°C° 0 mm 2 m/s 761 mmHg 57%
    19:00 +17°C° 0 mm 2 m/s 761 mmHg 66%
    20:00 +15°C° 0 mm 2 m/s 761 mmHg 70%
    21:00 +13°C° 0 mm 2 m/s 761 mmHg 75%
    22:00 +11°C° 0 mm 1 m/s 761 mmHg 79%
    23:00 +10°C° 0 mm 1 m/s 761 mmHg 80%
    Voir plus